Weather History for Tampa, FL

Change the Weather History Date:

Saturday, March 10, 2012

  Actual Average Record
Temperature  
Mean Temperature 73 °F 66 °F  
Max Temperature 82 °F 76 °F 87 °F (1925)
Min Temperature 64 °F 57 °F 35 °F (1932)
Degree Days  
Heating Degree Days 0 2  
Month to date heating degree days 3 26  
Since 1 July heating degree days 208 497  
Cooling Degree Days 8 4  
Month to date cooling degree days 70 34  
Year to date cooling degree days 260 147  
Growing Degree Days 23 (Base 50)    
Moisture  
Dew Point 63 °F    
Average Humidity 74    
Maximum Humidity 100    
Minimum Humidity 47    
Precipitation  
Precipitation 0.00 in 0.10 in 1.06 in (2011)
Month to date precipitation 0.14 0.97  
Year to date precipitation 3.11 6.01  
Sea Level Pressure  
Sea Level Pressure 30.19 in    
Wind  
Wind Speed 8 mph (NNE)    
Max Wind Speed 17 mph    
Max Gust Speed 22 mph    
Visibility 8 miles    
Events      
T = Trace of Precipitation, MM = Missing Value Source: NWS Daily Summary

Daily Weather History Graph

Daily Weather History Graph

Search for Another Location

Airport:

Trip Planner

Search our weather history database for the weather conditions in past years. The results will help you decide how hot, cold, wet, or windy it might be!

Date:

Astronomy

Mar. 10, 2012 Rise Set
Actual Time 6:44 AM EST 6:36 PM EST
Civil Twilight 6:21 AM EST 6:59 PM EST
Nautical Twilight 5:54 AM EST 7:26 PM EST
Astronomical Twilight 5:26 AM EST 7:54 PM EST
Moon 9:24 PM EST (3/10) 7:58 AM EST (3/10)
Length of Visible Light 12h 38m
Length of Day
11h 51m
Waning Gibbous, 93% of the Moon is Illuminated
Mar 10
Waning Gibbous
Mar 14
Last Quarter
Mar 22
New
Mar 30
First Quarter
Apr 6
Full

Hourly Weather History & Observations

Time (EST) Temp. Heat Index Dew Point Humidity Pressure Visibility Wind Dir Wind Speed Gust Speed Precip Events Conditions
12:17 AM 69.8 °F - 66.2 °F 88% 30.19 in 10.0 mi North 4.6 mph - N/A   Mostly Cloudy
12:48 AM 69.8 °F - 66.2 °F 88% 30.19 in 10.0 mi Calm Calm - N/A   Overcast
12:53 AM 70.0 °F - 66.0 °F 87% 30.19 in 10.0 mi North 3.5 mph - N/A   Overcast
1:20 AM 69.8 °F - 66.2 °F 88% 30.17 in 10.0 mi NNE 4.6 mph - N/A   Mostly Cloudy
1:51 AM 69.8 °F - 64.4 °F 83% 30.16 in 10.0 mi NNW 4.6 mph - N/A   Scattered Clouds
1:53 AM 68.0 °F - 64.9 °F 90% 30.16 in 10.0 mi NNW 4.6 mph - N/A   Scattered Clouds
2:53 AM 66.9 °F - 64.0 °F 90% 30.15 in 10.0 mi NW 4.6 mph - N/A   Clear
3:53 AM 66.0 °F - 64.0 °F 93% 30.14 in 8.0 mi NNW 4.6 mph - N/A   Partly Cloudy
4:53 AM 64.9 °F - 64.0 °F 97% 30.14 in 8.0 mi North 4.6 mph - N/A   Partly Cloudy
5:53 AM 64.9 °F - 62.1 °F 90% 30.15 in 10.0 mi North 6.9 mph - N/A   Partly Cloudy
6:05 AM 64.4 °F - 62.6 °F 94% 30.15 in 10.0 mi North 6.9 mph - N/A   Partly Cloudy
6:14 AM 64.4 °F - 62.6 °F 94% 30.15 in 10.0 mi NNE 8.1 mph - N/A   Mostly Cloudy
6:32 AM 64.4 °F - 62.6 °F 94% 30.17 in 10.0 mi NNE 8.1 mph - N/A   Overcast
6:53 AM 64.0 °F - 62.1 °F 93% 30.17 in 8.0 mi NNE 9.2 mph - N/A   Overcast
6:56 AM 64.4 °F - 62.6 °F 94% 30.17 in 2.0 mi NNE 9.2 mph - N/A   Overcast
7:02 AM 64.4 °F - 62.6 °F 94% 30.17 in 1.0 mi NE 8.1 mph - N/A   Overcast
7:07 AM 64.4 °F - 62.6 °F 94% 30.17 in 0.8 mi NNE 10.4 mph - N/A   Overcast
7:50 AM 64.4 °F - 62.6 °F 94% 30.20 in 2.0 mi NE 6.9 mph - N/A   Overcast
7:53 AM 64.9 °F - 62.1 °F 90% 30.20 in 2.0 mi NNE 8.1 mph - N/A   Overcast
8:30 AM 66.2 °F - 62.6 °F 88% 30.21 in 3.0 mi ENE 8.1 mph - N/A   Overcast
8:33 AM 64.4 °F - 62.6 °F 94% 30.21 in 3.0 mi ENE 5.8 mph - N/A   Overcast
8:53 AM 66.0 °F - 62.1 °F 87% 30.22 in 3.0 mi NE 6.9 mph - N/A   Overcast
9:53 AM 66.9 °F - 63.0 °F 87% 30.24 in 3.0 mi ENE 6.9 mph - N/A   Overcast
10:38 AM 69.8 °F - 64.4 °F 83% 30.24 in 8.0 mi ENE 5.8 mph - N/A   Overcast
10:53 AM 69.1 °F - 63.0 °F 81% 30.25 in 10.0 mi NNE 10.4 mph - N/A   Overcast
11:44 AM 71.6 °F - 62.6 °F 73% 30.23 in 10.0 mi Variable 4.6 mph - N/A   Mostly Cloudy
11:53 AM 73.9 °F - 63.0 °F 68% 30.23 in 10.0 mi Variable 4.6 mph - N/A   Mostly Cloudy
12:53 PM 77.0 °F - 62.1 °F 60% 30.21 in 10.0 mi NE 8.1 mph - N/A   Overcast
1:20 PM 78.8 °F - 62.6 °F 57% 30.20 in 10.0 mi Variable 4.6 mph - N/A   Mostly Cloudy
1:53 PM 81.0 °F 81.9 °F 62.1 °F 52% 30.19 in 10.0 mi NNE 8.1 mph - N/A   Mostly Cloudy
2:53 PM 81.0 °F 81.7 °F 61.0 °F 50% 30.17 in 10.0 mi Variable 6.9 mph - N/A   Mostly Cloudy
3:53 PM 82.0 °F 82.7 °F 61.0 °F 49% 30.16 in 10.0 mi NNE 10.4 mph - N/A   Scattered Clouds
4:53 PM 80.1 °F 81.1 °F 61.0 °F 52% 30.15 in 10.0 mi NE 10.4 mph 18.4 mph N/A   Scattered Clouds
5:53 PM 78.1 °F - 62.1 °F 58% 30.15 in 10.0 mi NNE 16.1 mph 21.9 mph N/A   Scattered Clouds
6:53 PM 73.9 °F - 62.1 °F 66% 30.18 in 10.0 mi NE 10.4 mph 18.4 mph N/A   Scattered Clouds
7:53 PM 72.0 °F - 63.0 °F 73% 30.19 in 10.0 mi NE 9.2 mph 17.3 mph N/A   Scattered Clouds
8:48 PM 71.6 °F - 62.6 °F 73% 30.22 in 10.0 mi NE 11.5 mph - N/A   Mostly Cloudy
8:53 PM 71.1 °F - 62.1 °F 73% 30.22 in 10.0 mi NE 8.1 mph 16.1 mph N/A   Mostly Cloudy
9:03 PM 69.8 °F - 62.6 °F 78% 30.23 in 10.0 mi NNE 9.2 mph 17.3 mph N/A   Scattered Clouds
9:53 PM 69.1 °F - 62.1 °F 78% 30.23 in 10.0 mi NE 10.4 mph 19.6 mph N/A   Partly Cloudy
10:53 PM 68.0 °F - 62.1 °F 81% 30.24 in 10.0 mi NE 9.2 mph - N/A   Scattered Clouds
11:53 PM 68.0 °F - 62.6 °F 83% 30.24 in 10.0 mi NE 8.1 mph - N/A   Scattered Clouds